Location: Chisholm
(54.9102°N, 114.1701°W)
Time: 03:30:34
(UTC+00:00)

ISS - Pass Details

Date: 28 November 2021
Orbit: 413 x 422 km, 51.6° (Epoch: 23 January)

Event Time Altitude Azimuth Distance (km) Brightness Sun altitude
Rises 01:15:41 0° 252° (WSW) 2,382 1.9 -16.1°
Reaches altitude 10° 01:17:50 10° 246° (WSW) 1,515 0.4 -16.4°
Maximum altitude 01:21:07 46° 172° (S) 584 -3.1 -16.8°
Enters shadow 01:22:05 34° 126° (SE) 718 -2.9 -17.0°
